Flag for U.S.A. Weather past 2 weeks in Lexington, Virginia, U.S.A.

Now
55 °F

Sunny.


Feels Like: 51 °F
Forecast: 46 / 74 °F
Wind: 13 mph from West

Location: Hot Springs / Ingalls

Current Time: May 22, 2015 at 8:43:23 PM

Latest Report: May 22, 2015 at 8:15 PM


Visibility: 10 mi

Pressure: 30.27 "Hg

Humidity: 50%

Dew point: 36 °F

Location of LexingtonLocation

Historic Weather in Lexington — Graph

°F

Lexington temperature yesterday

Maximum temperature yesterday: 54 °F (at 12:15 AM)
Minimum temperature yesterday: 42 °F (at 11:55 PM)
Average temperature yesterday: 48 °F

Past Weeks' High & Low Weather Summary

 TemperatureHumidityPressure
High78 °F (May 11, 2:15 PM)100% (May 8, 2:15 AM)30.42 "Hg (May 8, 2:15 AM)
Low38 °F (May 14, 6:15 AM)24% (May 20, 5:10 PM)29.91 "Hg (May 21, 2:35 PM)
Average60 °F76%30.21 "Hg
* Reported May 7 7:15 PM — May 22 7:15 PM, Lexington, Weather by CustomWeather, © 2015

Note: Actual official high and low records may vary slightly from our data, if they occured in-between our weather recording intervals... More about our weather records

Advertising

Lexington weather history for previous 24 hours

 ConditionsComfort  
Time TempWeatherWind HumidityBarometerVisibility
7:15 PM
Fri, May 22
58 °FSunny.9 mph43%30.24 "Hg10 mi
6:55 PM59 °FScattered clouds.12 mph39%30.24 "Hg10 mi
6:15 PM60 °FPartly sunny.9 mph38%30.24 "Hg10 mi
5:55 PM62 °FPartly sunny.10 mph35%30.24 "Hg10 mi
5:15 PM62 °FPartly sunny.9 mph33%30.22 "Hg10 mi
4:55 PM62 °FScattered clouds.7 mph33%30.22 "Hg10 mi
4:35 PM62 °FScattered clouds.12 mph36%30.21 "Hg10 mi
4:15 PM62 °FPartly sunny.13 mph35%30.21 "Hg7 mi
3:55 PM63 °FPartly sunny.14 mph38%30.21 "Hg10 mi
3:35 PM62 °FScattered clouds.13 mph37%30.22 "Hg10 mi
3:15 PM61 °FPartly sunny.10 mph39%30.22 "Hg10 mi
2:55 PM59 °FOvercast.10 mph44%30.22 "Hg10 mi
2:35 PM58 °FPartly sunny.7 mph44%30.22 "Hg10 mi
2:15 PM59 °FScattered clouds.10 mph44%30.22 "Hg10 mi
1:55 PM59 °FScattered clouds.8 mph43%30.21 "Hg10 mi
1:35 PM59 °FScattered clouds.7 mph49%30.22 "Hg10 mi
1:15 PM58 °FScattered clouds.5 mph48%30.22 "Hg10 mi
12:55 PM57 °FScattered clouds.10 mph51%30.21 "Hg10 mi
12:35 PM56 °FSunny.10 mph55%30.21 "Hg10 mi
12:15 PM55 °FSunny.14 mph55%30.20 "Hg10 mi
11:55 AM54 °FSunny.9 mph53%30.21 "Hg10 mi
11:35 AM53 °FSunny.12 mph56%30.20 "Hg10 mi
11:15 AM52 °FSunny.14 mph61%30.20 "Hg10 mi
10:55 AM50 °FSunny.13 mph61%30.20 "Hg10 mi
10:35 AM50 °FSunny.15 mph67%30.19 "Hg10 mi
10:15 AM48 °FSunny.17 mph71%30.18 "Hg10 mi
9:55 AM47 °FScattered clouds.17 mph73%30.17 "Hg10 mi
9:35 AM45 °FSunny.16 mph78%30.17 "Hg10 mi
9:15 AM44 °FSunny.15 mph81%30.16 "Hg10 mi
8:55 AM43 °FSunny.17 mph84%30.16 "Hg10 mi
8:35 AM42 °FSunny.14 mph85%30.15 "Hg10 mi
8:15 AM41 °FSunny.15 mph89%30.14 "Hg10 mi
7:55 AM40 °FSunny.14 mph93%30.14 "Hg10 mi
7:15 AM39 °FSunny.13 mph94%30.12 "Hg10 mi
6:55 AM39 °FClear.10 mph91%30.11 "Hg10 mi
6:35 AM39 °FClear.18 mph88%30.10 "Hg10 mi
6:15 AM39 °FPassing clouds.13 mph94%30.09 "Hg10 mi
5:55 AM39 °FPassing clouds.15 mph95%30.08 "Hg10 mi
5:15 AM39 °FPassing clouds.12 mph97%30.06 "Hg10 mi
4:55 AM40 °FPassing clouds.13 mph93%30.06 "Hg10 mi
4:35 AM40 °FMostly cloudy.14 mph97%30.06 "Hg10 mi
4:15 AM40 °FPassing clouds.12 mph97%30.06 "Hg10 mi
3:55 AM41 °FMostly cloudy.17 mph97%30.05 "Hg10 mi
3:35 AM41 °FMostly cloudy.8 mph98%30.05 "Hg10 mi
3:15 AM41 °FOvercast.8 mph98%30.04 "Hg10 mi
2:55 AM41 °FOvercast.12 mph100%30.04 "Hg10 mi
2:35 AM41 °FMostly cloudy.12 mph98%30.04 "Hg10 mi
2:15 AM41 °FOvercast.15 mph100%30.04 "Hg10 mi
1:55 AM41 °FFog.10 mph100%30.04 "Hg5 mi
1:35 AM41 °FFog.13 mph100%30.04 "Hg2 mi
1:15 AM41 °FFog.13 mph100%30.05 "Hg1 mi
12:55 AM41 °FFog.12 mph100%30.04 "Hg1 mi
12:35 AM42 °FFog.9 mph100%30.04 "Hg5 mi
12:15 AM42 °FFog.15 mph100%30.04 "Hg1 mi
11:55 PM
Thu, May 21
42 °FLight rain. Low clouds.13 mph100%30.02 "Hg2 mi
11:35 PM44 °FRain. Low clouds.8 mph100%30.02 "Hg0 mi
11:15 PM44 °FLight rain. Low clouds.10 mph100%30.02 "Hg0 mi
10:55 PM45 °FLight rain. Low clouds.5 mph100%30.02 "Hg0 mi
10:35 PM45 °FLight rain. Low clouds.12 mph100%30.01 "Hg1 mi
10:15 PM45 °FLight rain. Low clouds.9 mph100%30.00 "Hg10 mi
9:55 PM46 °FLow clouds.14 mph99%30.00 "Hg10 mi
9:35 PM46 °FLow clouds.10 mph96%29.99 "Hg10 mi
9:15 PM47 °FLow clouds.14 mph94%29.98 "Hg10 mi
8:55 PM47 °FLow clouds.8 mph93%29.97 "Hg10 mi
8:35 PM47 °FLow clouds.13 mph95%29.96 "Hg10 mi
8:15 PM48 °FLow clouds.12 mph98%29.95 "Hg10 mi
Weather by CustomWeather, © 2015

See weather overviewHow to use our weather pages